Regional Weather Roundup
Issued by NWS Glasgow, MT

Home | Current Version | Previous Version | Text Only | Print | Product List | Glossary On
Versions: 1 2 3 4 5 6 7 8 9 10 11 12 13 14 15 16 17 18 19 20 21 22 23 24 25 26 27 28 29 30 31 32 33 34 35 36 37 38 39 40 41 42 43 44 45 46 47 48 49 50
000
ASUS45 KGGW 211815
RWRGGW
HOURLY WEATHER ROUNDUP FOR NORTHEAST MONTANA
NATIONAL WEATHER SERVICE GLASGOW MONTANA
1200 PM MDT TUE OCT 21 2014

NOTE: "FAIR" INDICATES FEW OR NO CLOUDS BELOW 12,000 FEET WITH NO
SIGNIFICANT WEATHER AND/OR OBSTRUCTIONS TO VISISBILITY.

NORTHEAST MONTANA


CITY           SKY/WX    TMP DP  RH WIND       PRES   REMARKS
GLASGOW        SUNNY     64  44  48 E14       29.61F
6HR MIN TEMP:  45; 6HR MAX TEMP:  64;

PLENTYWOOD       N/A     64  42  44 SE3         N/A
WOLF POINT     SUNNY     62  46  55 SE5       29.63F
JORDAN           N/A     76  37  24 VRB6      29.62F
WINNETT          N/A     73  38  27 S3          N/A
SIDNEY         SUNNY     61  45  55 CALM      29.66F
GLENDIVE       SUNNY     63  43  48 S9        29.66F
MALTA            N/A     61  47  59 NE5         N/A
SCOBEY           N/A     65  44  46 CALM      29.65F

FORT PECK REPORTS


CITY           SKY/WX    TMP DP  RH WIND       PRES   REMARKS
FORT PECK        N/A     69  51  52 SE6         N/A
THE PINES        N/A     72  40  31 SE3         N/A

SOUTHEAST MONTANA


CITY           SKY/WX    TMP DP  RH WIND       PRES   REMARKS
BILLINGS       PTSUNNY   64  33  31 SW12      29.70S
MILES CITY     SUNNY     61  42  49 CALM      29.66F
BAKER          SUNNY     74  40  29 S15       29.67F
LIVINGSTON     MOSUNNY   64  40  41 SW17G23   29.73F

CENTRAL MONTANA


CITY           SKY/WX    TMP DP  RH WIND       PRES   REMARKS
HAVRE          PTSUNNY   54  40  59 SW10      29.66R
LEWISTOWN      CLOUDY    67  39  35 S16G31    29.69R
GREAT FALLS    LGT RAIN  56  37  49 NW14      29.69R
CUT BANK         N/A    N/A N/A N/A MISG      29.73F
HELENA         LGT RAIN  55  43  63 W17G23    29.69F
BUTTE          RAIN      42  40  92 NW14      29.82R FOG
BOZEMAN        PTSUNNY   63  40  42 S17       29.72R

WESTERN MONTANA


CITY           SKY/WX    TMP DP  RH WIND       PRES   REMARKS
MISSOULA       LGT RAIN  48  46  93 NE3       29.88R
KALISPELL      NOT AVBL

NORTH DAKOTA


CITY           SKY/WX    TMP DP  RH WIND       PRES   REMARKS
WILLISTON      SUNNY     63  41  44 SE9       29.67F
DICKINSON      SUNNY     68  45  43 SE13      29.68F
MINOT          SUNNY     65  40  39 E12       29.72F
BISMARCK       SUNNY     71  43  36 S15       29.75F

SOUTHERN SASKATCHEWAN


CITY           SKY/WX    TMP DP  RH WIND       PRES   REMARKS
REGINA         MOSUNNY   61  45  55 SE16      29.64F
MOOSE JAW      MOSUNNY   63  46  55 SE7       29.61F
ESTEVAN        MOSUNNY   64  41  42 E12       29.68F
SWIFT CURRENT  SUNNY     66  37  34 S8        29.56F




USA.gov is the U.S. government's official web portal to all federal, state and local government web resources and services.